Tracking 35334 objects as of 12-Sep-2026
HD Live streaming from Space Station
objects crossing your sky now

STARLINK-3819

Track STARLINK-3819 now!
10-day predictions
STARLINK-3819 is classified as:


NORAD ID: 52349
Int'l Code: 2022-045U
Launch date: April 29, 2022
Source: United States (US)
Launch site: AIR FORCE EASTERN TEST RANGE (AFETR)
Your satellite tracking list
Your tracking list is empty




NASA's NSSDC Master Catalog

Two Line Element Set (TLE):
1 52349U 22045U   26254.89569736  .00000567  00000-0  27165-4 0  9991
2 52349  53.1598  69.8032 0001125  92.1652 267.9480 15.35399464244070
Source of the keplerian elements: AFSPC